PD1VW-10 Weather Reports


time (UTC)temp
C
wind
direction
speed
KPH
gust
KPH
rain 1hr
cm
rain 24hr
cm
rain mn
cm
humidity
%
barometer
mb
20260506081019 12 39 20.9 30.6 0.00 0.00 0.00 75 1011.3
20260506073039 11 33 17.7 20.9 0.00 0.00 0.00 80 1011.1
20260506072036 12 42 16.1 17.7 0.00 0.00 0.00 81 1011.2
20260506071033 11 51 17.7 25.7 0.00 0.00 0.00 81 1011.2
20260506062019 10 28 16.1 20.9 0.00 0.00 0.00 85 1011.1
20260506061017 10 351 16.1 24.1 0.00 0.00 0.00 85 1011.0
20260506051031 10 266 16.1 22.5 0.00 0.00 0.00 86 1010.8
20260506045025 10 266 16.1 20.9 0.00 0.00 0.00 85 1011.0
20260506044022 10 266 17.7 20.9 0.00 0.00 0.00 85 1011.0
20260506043019 10 266 16.1 20.9 0.00 0.00 0.00 85 1011.0
20260506042016 10 266 17.7 22.5 0.00 0.00 0.00 84 1010.9
20260506041044 10 267 19.3 22.5 0.00 0.00 0.00 83 1011.0
20260506040041 10 266 14.5 17.7 0.00 0.00 0.00 82 1011.0
20260506035038 10 267 19.3 22.5 0.00 0.00 0.00 82 1011.0
20260506034036 10 267 17.7 22.5 0.00 0.00 0.00 82 1011.0
20260506033033 10 266 16.1 22.5 0.00 0.00 0.00 84 1011.0
20260506032030 10 266 19.3 20.9 0.00 0.00 0.00 85 1011.2
20260506031028 10 266 14.5 17.7 0.00 0.00 0.00 85 1011.2
20260506030105 10 266 19.3 24.1 0.00 0.00 0.00 85 1011.1
20260506025022 10 266 12.9 14.5 0.00 0.00 0.00 85 1011.4
20260506024019 10 266 16.1 17.7 0.00 0.00 0.00 85 1011.3
20260506023016 10 266 17.7 24.1 0.00 0.00 0.00 85 1011.4
20260506022043 10 266 17.7 22.5 0.00 0.00 0.00 85 1011.4
20260506021100 10 266 17.7 22.5 0.00 0.00 0.00 84 1011.4
20260506020037 9 266 16.1 20.9 0.00 0.00 0.00 85 1011.3
20260506015035 9 266 16.1 20.9 0.00 0.00 0.00 85 1011.6
20260506014032 9 266 12.9 16.1 0.00 0.00 0.00 85 1011.6
20260506013028 9 266 16.1 17.7 0.00 0.00 0.00 85 1011.6
20260506012026 9 266 17.7 22.5 0.00 0.00 0.00 85 1011.5
20260506011023 9 266 14.5 16.1 0.00 0.00 0.00 86 1011.7
20260506010020 9 266 12.9 17.7 0.00 0.00 0.00 86 1011.6
20260506005017 9 266 16.1 20.9 0.00 0.00 0.00 86 1011.8
20260506004044 9 266 14.5 16.1 0.00 0.00 0.00 86 1011.9
20260506003041 8 266 17.7 25.7 0.00 0.00 0.00 87 1012.1
20260506002058 8 266 9.7 14.5 0.00 0.00 0.00 87 1012.1
20260506001035 8 266 11.3 14.5 0.00 0.00 0.00 88 1012.2
20260506000033 8 267 8.0 11.3 0.00 0.00 0.00 88 1012.1
20260505235050 8 267 9.7 11.3 0.00 0.00 0.00 88 1012.4
20260505234027 8 266 9.7 11.3 0.00 0.00 0.00 87 1012.3
20260505233024 8 266 9.7 12.9 0.00 0.00 0.00 87 1012.4
20260505232021 8 267 11.3 14.5 0.00 0.00 0.00 88 1012.6
20260505231038 8 266 9.7 11.3 0.00 0.00 0.00 87 1012.4
20260505230015 8 266 8.0 11.3 0.00 0.00 0.00 87 1012.7
20260505225042 8 266 11.3 14.5 0.00 0.00 0.00 86 1012.5
20260505224040 9 266 11.3 12.9 0.00 0.00 0.00 86 1012.6
20260505223036 9 266 9.7 12.9 0.00 0.00 0.00 85 1012.6
20260505222033 9 266 16.1 22.5 0.00 0.00 0.00 84 1012.6
20260505221031 9 266 14.5 20.9 0.00 0.00 0.00 83 1012.7
20260505220048 10 266 9.7 12.9 0.00 0.00 0.00 82 1012.8
20260505215025 10 266 14.5 20.9 0.00 0.00 0.00 82 1012.9
20260505214022 9 266 14.5 17.7 0.00 0.00 0.00 81 1013.1
20260505213019 9 266 9.7 11.3 0.00 0.00 0.00 79 1012.9
20260505212017 9 266 11.3 14.5 0.00 0.00 0.00 79 1013.0
20260505211044 9 266 11.3 16.1 0.00 0.00 0.00 79 1013.1
20260505210041 9 266 9.7 12.9 0.00 0.00 0.00 80 1013.0
20260505205038 9 266 12.9 16.1 0.00 0.00 0.00 80 1013.2
20260505204035 9 266 11.3 14.5 0.00 0.00 0.00 79 1013.1
20260505203032 9 266 11.3 12.9 0.00 0.00 0.00 79 1012.9
20260505202029 9 266 11.3 14.5 0.00 0.00 0.00 80 1013.0
20260505201026 9 266 9.7 12.9 0.00 0.00 0.00 79 1012.7
20260505200024 9 266 12.9 16.1 0.00 0.00 0.00 79 1012.8
20260505195021 9 266 11.3 14.5 0.00 0.00 0.00 80 1012.7
20260505194018 9 266 11.3 14.5 0.00 0.00 0.00 79 1012.6
20260505193015 9 266 11.3 14.5 0.00 0.00 0.00 79 1012.5
20260505192043 9 266 16.1 20.9 0.00 0.00 0.00 79 1012.6
20260505191040 10 266 16.1 20.9 0.00 0.00 0.00 78 1012.5
20260505190037 10 266 16.1 22.5 0.00 0.00 0.00 77 1012.5
20260505185034 10 266 14.5 17.7 0.00 0.00 0.00 77 1012.4
20260505184051 10 266 16.1 20.9 0.00 0.00 0.00 77 1012.5
20260505183028 10 267 16.1 22.5 0.00 0.00 0.00 75 1012.3
20260505182025 10 269 17.7 24.1 0.00 0.00 0.00 74 1012.5
20260505181042 10 308 20.9 25.7 0.00 0.00 0.00 75 1012.5
20260505180020 11 352 24.1 29.0 0.00 0.00 0.00 75 1012.5
20260505175017 11 31 22.5 29.0 0.00 0.00 0.00 74 1012.5
20260505174044 11 35 27.4 30.6 0.00 0.00 0.00 74 1012.5
20260505173041 11 33 22.5 33.8 0.00 0.00 0.00 74 1012.4
20260505172039 12 34 20.9 33.8 0.00 0.00 0.00 74 1012.4
20260505171056 12 46 24.1 27.4 0.00 0.00 0.00 73 1012.3
20260505170033 12 27 22.5 29.0 0.00 0.00 0.00 73 1012.3
20260505165050 12 36 24.1 30.6 0.00 0.00 0.00 73 1012.4
20260505164027 12 40 24.1 29.0 0.00 0.00 0.00 73 1012.3
20260505163024 12 28 30.6 37.0 0.00 0.00 0.00 72 1012.4
20260505162021 12 40 25.7 35.4 0.00 0.00 0.00 72 1012.8
20260505161039 12 31 24.1 33.8 0.00 0.00 0.00 72 1012.3
20260505153037 13 27 17.7 25.7 0.00 0.00 0.00 70 1012.4
20260505152035 13 46 25.7 33.8 0.00 0.00 0.00 70 1012.4
20260505151032 13 23 19.3 25.7 0.00 0.00 0.00 69 1012.5
20260505125022 13 28 20.9 25.7 0.00 0.00 0.00 69 1013.2
20260505124019 13 46 19.3 25.7 0.00 0.00 0.00 69 1013.1
20260505123016 13 40 22.5 27.4 0.00 0.00 0.00 69 1013.1
20260505122043 12 40 22.5 29.0 0.00 0.00 0.00 70 1013.3
20260505121040 12 78 11.3 17.7 0.00 0.00 0.00 71 1013.2
20260505120037 12 47 16.1 17.7 0.00 0.00 0.00 71 1013.2
20260505115035 12 36 19.3 25.7 0.00 0.00 0.00 72 1013.2
20260505114032 12 44 12.9 20.9 0.00 0.00 0.00 71 1013.6
20260505113029 12 48 16.1 22.5 0.00 0.00 0.00 71 1013.4
20260505112026 12 50 19.3 24.1 0.00 0.00 0.00 71 1013.6
20260505111023 12 25 16.1 17.7 0.00 0.00 0.00 72 1013.8
20260505102038 11 351 14.5 20.9 0.00 0.05 0.00 74 1014.0
20260505101036 11 42 11.3 16.1 0.00 0.18 0.00 74 1014.2
20260505100033 12 46 11.3 12.9 0.00 0.28 0.00 72 1014.2
20260505095050 12 45 17.7 20.9 0.00 0.28 0.00 74 1014.0
20260505094028 11 50 19.3 27.4 0.00 0.28 0.00 76 1014.0
20260505093025 11 11 16.1 20.9 0.00 0.28 0.00 75 1013.8
20260505092042 12 43 19.3 25.7 0.00 0.28 0.00 75 1013.9
20260505091039 11 68 17.7 27.4 0.00 0.28 0.00 75 1013.8
20260505090017 11 30 16.1 20.9 0.00 0.28 0.00 76 1013.8
20260505085044 11 34 12.9 20.9 0.00 0.28 0.00 77 1014.0
20260505084041 11 36 27.4 30.6 0.00 0.28 0.00 76 1014.1
20260505083038 11 36 24.1 29.0 0.00 0.28 0.00 77 1014.0
20260505082055 11 43 19.3 24.1 0.00 0.28 0.00 78 1014.2